GBKIJ EGKA-EGSR

Flight info

Callsign GBKIJ
Flight time 0h 53m
Altitude 2000
Route VFR
Aircraft C172/L-SFG/C

Departure

Time 2026-05-05 15:08
Airport Brighton City Airport (EGKA)

Arrival

Time 2026-05-05 16:01
Airport Earls Colne Airfield (EGSR)
Time Latitude Longitude Altitude Speed Heading
2026-05-05 14:52 50.83441 -0.28912 3 ft 0 kts 253°
2026-05-05 14:59 50.83350 -0.29310 3 ft 8 kts 256°
2026-05-05 14:59 50.83441 -0.28912 3 ft 0 kts 253°
2026-05-05 15:02 50.83440 -0.28916 3 ft 3 kts 255°
2026-05-05 15:03 50.83446 -0.28954 3 ft 7 kts 343°
2026-05-05 15:03 50.83475 -0.29036 3 ft 15 kts 252°
2026-05-05 15:03 50.83442 -0.29218 3 ft 17 kts 255°
2026-05-05 15:03 50.83398 -0.29382 3 ft 15 kts 244°
2026-05-05 15:04 50.83353 -0.29521 3 ft 13 kts 242°
2026-05-05 15:04 50.83315 -0.29642 3 ft 11 kts 245°
2026-05-05 15:04 50.83283 -0.29747 3 ft 10 kts 243°
2026-05-05 15:04 50.83254 -0.29835 3 ft 8 kts 230°
2026-05-05 15:05 50.83187 -0.29861 3 ft 0 kts 36°
2026-05-05 15:06 50.83194 -0.29873 3 ft 7 kts 237°
2026-05-05 15:06 50.83131 -0.29967 3 ft 16 kts 258°
2026-05-05 15:07 50.83210 -0.29951 5 ft 33 kts 21°
2026-05-05 15:07 50.83550 -0.29767 66 ft 59 kts 18°
2026-05-05 15:07 50.83952 -0.29623 245 ft 60 kts 25°
2026-05-05 15:07 50.84352 -0.29407 436 ft 64 kts 24°
2026-05-05 15:08 50.84756 -0.29168 694 ft 62 kts 30°
2026-05-05 15:08 50.85175 -0.28823 760 ft 73 kts 28°
2026-05-05 15:08 50.85539 -0.28227 856 ft 83 kts 66°
2026-05-05 15:08 50.85438 -0.27276 1002 ft 98 kts 108°
2026-05-05 15:09 50.85113 -0.26304 1183 ft 100 kts 111°
2026-05-05 15:09 50.84806 -0.25310 1290 ft 104 kts 108°
2026-05-05 15:09 50.84520 -0.24247 1377 ft 104 kts 107°
2026-05-05 15:09 50.84266 -0.23200 1504 ft 100 kts 106°
2026-05-05 15:10 50.84024 -0.22188 1631 ft 97 kts 105°
2026-05-05 15:10 50.83787 -0.21191 1775 ft 98 kts 105°
2026-05-05 15:10 50.83535 -0.20135 1814 ft 106 kts 107°
2026-05-05 15:10 50.83266 -0.19041 1808 ft 106 kts 108°
2026-05-05 15:11 50.82997 -0.17953 1797 ft 106 kts 106°
2026-05-05 15:11 50.82732 -0.16877 1799 ft 105 kts 107°
2026-05-05 15:11 50.82469 -0.15808 1792 ft 104 kts 106°
2026-05-05 15:11 50.82208 -0.14746 1813 ft 104 kts 107°
2026-05-05 15:12 50.81945 -0.13664 1827 ft 107 kts 107°
2026-05-05 15:12 50.81672 -0.12555 1823 ft 110 kts 107°
2026-05-05 15:12 50.81386 -0.11432 1797 ft 109 kts 105°
2026-05-05 15:12 50.81175 -0.10303 1796 ft 105 kts 88°
2026-05-05 15:13 50.81391 -0.09268 1785 ft 98 kts 53°
2026-05-05 15:13 50.81776 -0.08391 1789 ft 97 kts 55°
2026-05-05 15:13 50.82160 -0.07505 1800 ft 98 kts 54°
2026-05-05 15:13 50.82546 -0.06618 1783 ft 98 kts 54°
2026-05-05 15:14 50.82926 -0.05736 1778 ft 96 kts 54°
2026-05-05 15:14 50.83296 -0.04876 1796 ft 95 kts 53°
2026-05-05 15:14 50.83673 -0.04004 1794 ft 96 kts 57°
2026-05-05 15:14 50.84040 -0.03142 1788 ft 94 kts 56°
2026-05-05 15:15 50.84414 -0.02280 1828 ft 97 kts 53°
2026-05-05 15:15 50.84797 -0.01384 1819 ft 98 kts 54°
2026-05-05 15:15 50.85170 -0.00511 1813 ft 96 kts 56°
2026-05-05 15:15 50.85545 0.00364 1807 ft 95 kts 56°
2026-05-05 15:16 50.85912 0.01224 1785 ft 93 kts 55°
2026-05-05 15:16 50.86265 0.02049 1778 ft 89 kts 54°
2026-05-05 15:16 50.86708 0.02684 1780 ft 86 kts 30°
2026-05-05 15:16 50.87240 0.03110 1783 ft 86 kts 33°
2026-05-05 15:17 50.87752 0.03583 1791 ft 85 kts 33°
2026-05-05 15:17 50.88270 0.04064 1823 ft 88 kts 33°
2026-05-05 15:17 50.88805 0.04547 1804 ft 89 kts 32°
2026-05-05 15:17 50.89350 0.05037 1792 ft 91 kts 32°
2026-05-05 15:18 50.89902 0.05529 1811 ft 92 kts 32°
2026-05-05 15:18 50.90470 0.06032 1795 ft 94 kts 31°
2026-05-05 15:18 50.91040 0.06542 1817 ft 95 kts 33°
2026-05-05 15:18 50.91618 0.07067 1813 ft 96 kts 33°
2026-05-05 15:19 50.92190 0.07578 1800 ft 93 kts 32°
2026-05-05 15:19 50.92739 0.08062 1857 ft 85 kts 33°
2026-05-05 15:19 50.93231 0.08490 1990 ft 77 kts 34°
2026-05-05 15:19 50.93687 0.08889 2137 ft 72 kts 31°
2026-05-05 15:20 50.94113 0.09266 2213 ft 72 kts 35°
2026-05-05 15:20 50.94563 0.09685 2231 ft 78 kts 32°
2026-05-05 15:20 50.95050 0.10125 2250 ft 83 kts 31°
2026-05-05 15:20 50.95571 0.10587 2256 ft 88 kts 34°
2026-05-05 15:21 50.96107 0.11083 2265 ft 91 kts 33°
2026-05-05 15:21 50.96662 0.11576 2262 ft 92 kts 33°
2026-05-05 15:21 50.97221 0.12079 2280 ft 93 kts 31°
2026-05-05 15:21 50.97797 0.12579 2270 ft 94 kts 33°
2026-05-05 15:22 50.98366 0.13096 2277 ft 95 kts 32°
2026-05-05 15:22 50.98944 0.13613 2259 ft 95 kts 31°
2026-05-05 15:22 50.99514 0.14118 2249 ft 93 kts 32°
2026-05-05 15:22 51.00080 0.14630 2295 ft 95 kts 32°
2026-05-05 15:23 51.00653 0.15134 2299 ft 93 kts 31°
2026-05-05 15:23 51.01217 0.15648 2302 ft 93 kts 31°
2026-05-05 15:23 51.01786 0.16158 2289 ft 94 kts 31°
2026-05-05 15:23 51.02350 0.16662 2274 ft 91 kts 32°
2026-05-05 15:24 51.02899 0.17139 2303 ft 90 kts 32°
2026-05-05 15:24 51.03444 0.17629 2309 ft 90 kts 34°
2026-05-05 15:24 51.03984 0.18133 2314 ft 93 kts 31°
2026-05-05 15:24 51.04542 0.18636 2324 ft 92 kts 32°
2026-05-05 15:25 51.05108 0.19155 2319 ft 95 kts 32°
2026-05-05 15:25 51.05690 0.19654 2338 ft 96 kts 31°
2026-05-05 15:25 51.06280 0.20184 2335 ft 98 kts 31°
2026-05-05 15:25 51.06876 0.20724 2347 ft 99 kts 31°
2026-05-05 15:26 51.07474 0.21268 2334 ft 99 kts 32°
2026-05-05 15:26 51.08061 0.21790 2315 ft 94 kts 31°
2026-05-05 15:26 51.08624 0.22291 2325 ft 92 kts 32°
2026-05-05 15:26 51.09172 0.22783 2331 ft 90 kts 32°
2026-05-05 15:27 51.09711 0.23255 2354 ft 89 kts 30°
2026-05-05 15:27 51.10263 0.23759 2381 ft 93 kts 33°
2026-05-05 15:27 51.10826 0.24280 2359 ft 93 kts 32°
2026-05-05 15:27 51.11384 0.24780 2344 ft 90 kts 33°
2026-05-05 15:28 51.11929 0.25267 2363 ft 90 kts 32°
2026-05-05 15:28 51.12476 0.25762 2377 ft 92 kts 32°
2026-05-05 15:28 51.13036 0.26266 2385 ft 93 kts 32°
2026-05-05 15:28 51.13661 0.26567 2394 ft 98 kts
2026-05-05 15:29 51.14350 0.26572 2381 ft 99 kts
2026-05-05 15:29 51.15032 0.26539 2370 ft 97 kts
2026-05-05 15:29 51.15698 0.26509 2378 ft 95 kts
2026-05-05 15:29 51.16359 0.26484 2385 ft 96 kts
2026-05-05 15:30 51.17028 0.26461 2390 ft 97 kts
2026-05-05 15:30 51.17706 0.26452 2382 ft 97 kts
2026-05-05 15:30 51.18386 0.26442 2385 ft 98 kts
2026-05-05 15:30 51.19069 0.26439 2394 ft 98 kts
2026-05-05 15:31 51.19754 0.26429 2396 ft 99 kts
2026-05-05 15:31 51.20453 0.26422 2394 ft 101 kts
2026-05-05 15:31 51.21156 0.26414 2381 ft 101 kts
2026-05-05 15:31 51.21860 0.26405 2387 ft 101 kts
2026-05-05 15:32 51.22563 0.26392 2362 ft 100 kts
2026-05-05 15:32 51.23249 0.26376 2362 ft 97 kts
2026-05-05 15:32 51.23918 0.26369 2361 ft 95 kts
2026-05-05 15:32 51.24574 0.26352 2383 ft 96 kts
2026-05-05 15:33 51.25245 0.26351 2368 ft 96 kts
2026-05-05 15:33 51.25917 0.26339 2376 ft 98 kts
2026-05-05 15:33 51.26595 0.26326 2351 ft 96 kts
2026-05-05 15:33 51.27257 0.26311 2340 ft 95 kts
2026-05-05 15:34 51.27910 0.26310 2331 ft 92 kts
2026-05-05 15:34 51.28542 0.26283 2329 ft 90 kts
2026-05-05 15:34 51.29166 0.26259 2353 ft 91 kts
2026-05-05 15:34 51.29802 0.26253 2359 ft 92 kts
2026-05-05 15:35 51.30453 0.26245 2364 ft 95 kts
2026-05-05 15:35 51.31120 0.26238 2341 ft 96 kts
2026-05-05 15:35 51.31780 0.26222 2315 ft 93 kts
2026-05-05 15:35 51.32422 0.26212 2324 ft 91 kts
2026-05-05 15:36 51.33052 0.26195 2214 ft 90 kts
2026-05-05 15:36 51.33687 0.26185 2229 ft 92 kts
2026-05-05 15:36 51.34343 0.26182 2232 ft 96 kts
2026-05-05 15:36 51.35007 0.26174 2203 ft 93 kts
2026-05-05 15:37 51.35645 0.26160 2202 ft 90 kts
2026-05-05 15:37 51.36274 0.26142 2240 ft 92 kts
2026-05-05 15:37 51.36928 0.26126 2254 ft 96 kts
2026-05-05 15:37 51.37604 0.26122 2228 ft 97 kts
2026-05-05 15:38 51.38282 0.26107 2238 ft 98 kts
2026-05-05 15:38 51.38968 0.26104 2230 ft 99 kts
2026-05-05 15:38 51.39664 0.26095 2221 ft 100 kts
2026-05-05 15:38 51.40344 0.26085 2203 ft 98 kts
2026-05-05 15:39 51.41029 0.26067 2204 ft 96 kts
2026-05-05 15:39 51.41682 0.26048 2200 ft 95 kts
2026-05-05 15:39 51.42341 0.26037 2189 ft 95 kts
2026-05-05 15:39 51.42785 0.26029 2189 ft 93 kts
2026-05-05 15:40 51.43652 0.26011 2198 ft 95 kts
2026-05-05 15:40 51.44315 0.26001 2216 ft 96 kts
2026-05-05 15:40 51.44993 0.25991 2235 ft 100 kts
2026-05-05 15:40 51.45700 0.25982 2225 ft 103 kts
2026-05-05 15:41 51.46417 0.25989 2196 ft 102 kts 11°
2026-05-05 15:41 51.47062 0.26368 2198 ft 98 kts 28°
2026-05-05 15:41 51.47470 0.26684 2194 ft 99 kts 30°
2026-05-05 15:41 51.48082 0.27171 2191 ft 99 kts 31°
2026-05-05 15:42 51.48692 0.27659 2200 ft 98 kts 29°
2026-05-05 15:42 51.49305 0.28148 2204 ft 98 kts 30°
2026-05-05 15:42 51.49912 0.28634 2188 ft 96 kts 31°
2026-05-05 15:42 51.50507 0.29108 2186 ft 95 kts 30°
2026-05-05 15:43 51.51098 0.29576 2195 ft 95 kts 30°
2026-05-05 15:43 51.51683 0.30046 2190 ft 93 kts 31°
2026-05-05 15:43 51.52258 0.30504 2198 ft 92 kts 29°
2026-05-05 15:43 51.52836 0.30964 2198 ft 93 kts 30°
2026-05-05 15:44 51.53415 0.31426 2207 ft 94 kts 30°
2026-05-05 15:44 51.54007 0.31898 2214 ft 95 kts 30°
2026-05-05 15:44 51.54607 0.32380 2209 ft 97 kts 30°
2026-05-05 15:44 51.55216 0.32866 2194 ft 97 kts 30°
2026-05-05 15:45 51.55821 0.33348 2203 ft 97 kts 28°
2026-05-05 15:45 51.56424 0.33829 2207 ft 97 kts 31°
2026-05-05 15:45 51.57033 0.34314 2196 ft 98 kts 29°
2026-05-05 15:45 51.57640 0.34796 2177 ft 96 kts 27°
2026-05-05 15:46 51.58240 0.35271 2204 ft 97 kts 28°
2026-05-05 15:46 51.58848 0.35762 2191 ft 97 kts 28°
2026-05-05 15:46 51.59453 0.36244 2200 ft 96 kts 28°
2026-05-05 15:46 51.60047 0.36718 2218 ft 95 kts 29°
2026-05-05 15:47 51.60641 0.37194 2213 ft 95 kts 30°
2026-05-05 15:47 51.61227 0.37659 2186 ft 92 kts 27°
2026-05-05 15:47 51.61798 0.38113 2225 ft 92 kts 28°
2026-05-05 15:47 51.62378 0.38582 2220 ft 94 kts 29°
2026-05-05 15:48 51.62961 0.39047 2199 ft 92 kts 28°
2026-05-05 15:48 51.63535 0.39506 2222 ft 92 kts 30°
2026-05-05 15:48 51.64116 0.39973 2221 ft 93 kts 28°
2026-05-05 15:48 51.64701 0.40443 2209 ft 95 kts 28°
2026-05-05 15:49 51.65289 0.40913 2210 ft 94 kts 29°
2026-05-05 15:49 51.65868 0.41374 2223 ft 93 kts 28°
2026-05-05 15:49 51.66458 0.41847 2220 ft 95 kts 29°
2026-05-05 15:49 51.67042 0.42321 2213 ft 94 kts 30°
2026-05-05 15:50 51.67628 0.42788 2213 ft 94 kts 30°
2026-05-05 15:50 51.68217 0.43266 2238 ft 97 kts 29°
2026-05-05 15:50 51.68832 0.43765 2237 ft 100 kts 29°
2026-05-05 15:50 51.69465 0.44270 2241 ft 104 kts 30°
2026-05-05 15:51 51.70111 0.44787 2205 ft 103 kts 28°
2026-05-05 15:51 51.70742 0.45291 2203 ft 100 kts 28°
2026-05-05 15:51 51.71364 0.45790 2198 ft 99 kts 28°
2026-05-05 15:51 51.71978 0.46279 2211 ft 99 kts 30°
2026-05-05 15:52 51.72589 0.46774 2204 ft 98 kts 30°
2026-05-05 15:52 51.73190 0.47258 2221 ft 98 kts 30°
2026-05-05 15:52 51.73762 0.47863 2212 ft 99 kts 39°
2026-05-05 15:52 51.74310 0.48521 2211 ft 97 kts 37°
2026-05-05 15:53 51.74856 0.49143 2200 ft 95 kts 37°
2026-05-05 15:53 51.75387 0.49743 2200 ft 93 kts 37°
2026-05-05 15:53 51.75916 0.50343 2200 ft 93 kts 37°
2026-05-05 15:53 51.76442 0.50950 2204 ft 93 kts 38°
2026-05-05 15:54 51.76966 0.51552 2215 ft 93 kts 37°
2026-05-05 15:54 51.77497 0.52160 2216 ft 94 kts 38°
2026-05-05 15:54 51.78033 0.52777 2216 ft 95 kts 38°
2026-05-05 15:54 51.78572 0.53400 2211 ft 95 kts 38°
2026-05-05 15:55 51.79116 0.54027 2224 ft 97 kts 38°
2026-05-05 15:55 51.79670 0.54670 2225 ft 99 kts 37°
2026-05-05 15:55 51.80228 0.55315 2216 ft 99 kts 36°
2026-05-05 15:55 51.80790 0.55963 2210 ft 99 kts 37°
2026-05-05 15:56 51.81361 0.56621 2215 ft 102 kts 38°
2026-05-05 15:56 51.81946 0.57296 2224 ft 104 kts 38°
2026-05-05 15:56 51.82540 0.57987 2245 ft 108 kts 37°
2026-05-05 15:56 51.83158 0.58695 2266 ft 109 kts 39°
2026-05-05 15:57 51.83774 0.59419 2250 ft 109 kts 38°
2026-05-05 15:57 51.84397 0.60135 2220 ft 110 kts 38°
2026-05-05 15:57 51.85010 0.60838 2198 ft 106 kts 38°
2026-05-05 15:57 51.85599 0.61515 2194 ft 103 kts 38°
2026-05-05 15:58 51.86170 0.62174 2195 ft 99 kts 38°
2026-05-05 15:58 51.86734 0.62826 2165 ft 102 kts 38°
2026-05-05 15:58 51.87321 0.63514 2026 ft 108 kts 39°
2026-05-05 15:58 51.87933 0.64289 1766 ft 116 kts 45°
2026-05-05 15:59 51.88408 0.65316 1481 ft 115 kts 69°
2026-05-05 15:59 51.88585 0.66502 1286 ft 103 kts 94°
2026-05-05 15:59 51.88395 0.67611 1112 ft 101 kts 96°
2026-05-05 15:59 51.88785 0.68429 885 ft 112 kts 11°
2026-05-05 16:00 51.89386 0.67758 908 ft 111 kts 293°
2026-05-05 16:00 51.89470 0.66568 853 ft 99 kts 298°
2026-05-05 16:00 51.90015 0.66167 746 ft 82 kts
2026-05-05 16:00 51.90549 0.66102 612 ft 71 kts 29°
2026-05-05 16:01 51.90877 0.66586 467 ft 64 kts 51°
2026-05-05 16:01 51.91074 0.67199 382 ft 64 kts 63°
2026-05-05 16:01 51.91302 0.67861 252 ft 65 kts 69°
2026-05-05 16:01 51.91464 0.68342 234 ft 36 kts 62°
2026-05-05 16:02 51.91524 0.68537 237 ft 6 kts 97°
2026-05-05 16:02 51.91502 0.68567 238 ft 4 kts 161°
2026-05-05 16:02 51.91470 0.68571 238 ft 6 kts 203°
2026-05-05 16:02 51.91436 0.68487 237 ft 13 kts 238°
2026-05-05 16:03 51.91381 0.68331 236 ft 17 kts 238°
2026-05-05 16:03 51.91333 0.68192 237 ft 12 kts 241°
2026-05-05 16:03 51.91293 0.68078 237 ft 11 kts 237°
2026-05-05 16:03 51.91261 0.67986 238 ft 8 kts 240°
2026-05-05 16:04 51.91239 0.67921 239 ft 6 kts 240°
2026-05-05 16:04 51.91214 0.67852 239 ft 8 kts 240°
2026-05-05 16:04 51.91189 0.67767 238 ft 8 kts 244°
2026-05-05 16:04 51.91162 0.67688 237 ft 8 kts 242°
2026-05-05 16:05 51.91149 0.67620 238 ft 5 kts 234°
2026-05-05 16:05 51.91148 0.67589 238 ft 2 kts 354°
2026-05-05 16:05 51.91155 0.67587 238 ft 0 kts 339°